Location: Braden Valley Church
(38.0012°N, 88.6106°W)
Time: 07:25:20
(UTC+00:00)

X-37B - Pass Details

Date: 08 December 2021
Orbit: 334 x 337 km, 45.0° (Epoch: 11 January)

Event Time Altitude Azimuth Distance (km) Brightness Sun altitude
Rises 23:36:24 0° 254° (WSW) 2,096 6.5 -11.9°
Reaches altitude 10° 23:38:26 10° 260° (W) 1,262 4.6 -12.3°
Maximum altitude 23:41:11 49° 337° (NNW) 440 0.8 -12.8°
Enters shadow 23:42:34 24° 42° (NE) 737 1.5 -13.0°
